Regional Weather Roundup
Issued by NWS

Home | Current Version | Previous Version | Text Only | Print | Product List | Glossary Off
Versions: 1 2 3 4 5 6 7 8 9 10 11 12 13 14 15 16 17 18 19 20 21 22 23 24 25 26 27

000
ASUS45 KSLC 091110
RWRUT

UTAH REGIONAL WEATHER ROUNDUP
NATIONAL WEATHER SERVICE SALT LAKE CITY UT
400 AM MST FRI DEC 09 2016

UTZ001>011-023>025-091200-

NORTHERN UTAH

CITY           SKY/WX    TMP DP  RH WIND       PRES   REMARKS
BRIGHAM CITY     N/A     28  24  86 CALM      30.19F
HILL AFB       CLOUDY    30  25  83 E6        30.16F WCI  24
LOGAN          CLOUDY    25  23  92 N3        30.17R
OGDEN          CLOUDY    29  27  92 W3        30.17F
SALT LAKE CITY CLOUDY    30  25  81 SE8       30.17F WCI  22
WENDOVER       PTCLDY    19  16  86 NE7       30.20S WCI  10
HEBER CITY     LGT SNOW  32  32 100 CALM      30.20R

$$

UTZ011>015-024>027-091200-

CENTRAL/NORTHEAST UTAH

CITY           SKY/WX    TMP DP  RH WIND       PRES   REMARKS
PROVO AIRPORT  CLOUDY    35  27  72 S3        30.22S
MOAB/CANYONLAN PTCLDY    21   8  57 SW3       30.30S
DELTA          CLOUDY    37  19  48 S7        30.20S WCI  32
PRICE          PTCLDY    20   9  62 CALM      30.25F
ROOSEVELT      CLOUDY    12  10  92 W3        30.28S
VERNAL         CLOUDY    20  13  74 CALM      30.24F

$$

UTZ013>016-019>022-027-091200-

SOUTHERN UTAH

CITY           SKY/WX    TMP DP  RH WIND       PRES   REMARKS
BRYCE CANYON   CLEAR     13   9  84 W7        30.27S WCI   3
CEDAR CITY     CLEAR     28  21  75 S5        30.25F WCI  23
MILFORD        PTCLDY    32  16  51 S18       30.21F WCI  20
ST GEORGE      CLOUDY    32  16  51 CALM      30.33S
HANKSVILLE     PTCLDY    18   9  68 CALM      30.35S
KANAB          CLEAR     23  19  86 CALM      30.34
BLANDING       PTCLDY    28  16  61 CALM      30.37R

$$

REGIONAL REPORTS     COLORADO/ARIZONA

CITY           SKY/WX    TMP DP  RH WIND       PRES   REMARKS
CRAIG, CO      CLOUDY    25  18  74 NE5       30.17S WCI  19
GRAND JUNCTION CLOUDY    23  17  78 CALM      30.30R
RIFLE, CO      CLOUDY    24  15  68 CALM      30.29R
MONTROSE, CO   CLOUDY    27  18  69 CALM      30.29R
CORTEZ, CO     CLOUDY    25  22  88 E3        30.29S
COLORADO CITY    N/A     21  19  93 SE3       30.32F
PAGE, AZ       CLEAR     30  12  47 CALM      30.30R
GRAND CANYON   CLOUDY    26  24  92 CALM      30.32R
KINGMAN, AZ    CLOUDY    44  19  36 NW3       30.27S
FLAGSTAFF, AZ  CLEAR     23  22  96 CALM      30.31R

$$

REGIONAL REPORTS    NEVADA/IDAHO/WYOMING

CITY           SKY/WX    TMP DP  RH WIND       PRES   REMARKS
LAS VEGAS, NV  CLOUDY    47  13  25 CALM      30.28S
ELY, NY        CLEAR     15   8  73 SW5       30.24S WCI   8
ELKO, NV       CLOUDY    30  27  88 SW5       30.15R WCI  25
POCATELLO, ID  CLOUDY    21  18  88 NE7       30.14R WCI  12
BURLEY, ID     CLOUDY    22  20  92 CALM      30.11R
FORT BRIDGER,  CLOUDY    25  25 100 W9        30.12R WCI  16
EVANSTON, WY   LGT SNOW  30  28  92 SW16      30.12R FOG     WCI  19
ROCK SPRINGS,  CLOUDY    11   8  88 N6        30.10R WCI   1

$$




USA.gov is the U.S. government's official web portal to all federal, state and local government web resources and services.